Time,TemperatureF,DewpointF,PressureIn,WindDirection,WindDirectionDegrees,WindSpeedMPH,WindSpeedGustMPH,Humidity,HourlyPrecipIn,Conditions,Clouds,dailyrainin,SoftwareType,DateUTC
2013-07-21 00:04:00,74.4,68.9,29.74,NNE,30,0.0,0.0,83,0.00,,,0.00,Wunderground v.1.15,2013-07-21 04:04:00,
2013-07-21 00:09:00,74.2,68.7,29.74,NNE,30,0.0,0.0,83,0.00,,,0.00,Wunderground v.1.15,2013-07-21 04:09:00,
2013-07-21 00:14:00,73.9,68.4,29.74,NNE,30,0.0,0.0,83,0.00,,,0.00,Wunderground v.1.15,2013-07-21 04:14:00,
2013-07-21 00:19:00,73.7,68.2,29.74,NNE,30,0.0,0.0,83,0.00,,,0.00,Wunderground v.1.15,2013-07-21 04:19:00,
2013-07-21 00:24:00,73.5,68.4,29.74,NNE,30,0.0,0.0,84,0.00,,,0.00,Wunderground v.1.15,2013-07-21 04:24:00,
2013-07-21 00:29:00,73.3,68.2,29.75,NNE,30,0.0,0.0,84,0.00,,,0.00,Wunderground v.1.15,2013-07-21 04:29:00,
2013-07-21 00:34:00,73.1,68.0,29.75,NNE,30,0.0,0.0,84,0.00,,,0.00,Wunderground v.1.15,2013-07-21 04:34:00,
2013-07-21 00:39:00,73.0,67.9,29.75,NNE,30,0.0,0.0,84,0.00,,,0.00,Wunderground v.1.15,2013-07-21 04:39:00,
2013-07-21 00:44:00,72.8,67.3,29.75,NNE,30,0.0,0.0,83,0.00,,,0.00,Wunderground v.1.15,2013-07-21 04:44:00,
2013-07-21 00:49:00,72.7,67.6,29.75,NNE,30,0.0,0.0,84,0.00,,,0.00,Wunderground v.1.15,2013-07-21 04:49:00,
2013-07-21 00:54:00,72.5,67.4,29.75,NNE,30,0.0,0.0,84,0.00,,,0.00,Wunderground v.1.15,2013-07-21 04:54:00,
2013-07-21 01:04:00,72.2,67.1,29.75,NNE,30,0.0,0.0,84,0.00,,,0.00,Wunderground v.1.15,2013-07-21 05:04:00,
2013-07-21 01:09:00,72.0,66.9,29.75,NNE,30,0.0,0.0,84,0.00,,,0.00,Wunderground v.1.15,2013-07-21 05:09:00,
2013-07-21 01:14:00,71.9,67.1,29.76,NNE,30,0.0,0.0,85,0.00,,,0.00,Wunderground v.1.15,2013-07-21 05:14:00,
2013-07-21 01:19:00,71.9,67.5,29.76,NNE,30,0.0,0.0,86,0.00,,,0.00,Wunderground v.1.15,2013-07-21 05:19:00,
2013-07-21 01:29:00,72.2,67.4,29.76,NNE,30,0.0,0.0,85,0.00,,,0.00,Wunderground v.1.15,2013-07-21 05:29:00,
2013-07-21 01:34:00,72.4,67.6,29.76,NNE,30,0.0,0.0,85,0.00,,,0.00,Wunderground v.1.15,2013-07-21 05:34:00,
2013-07-21 01:39:00,72.6,67.5,29.76,NNE,30,0.0,0.0,84,0.00,,,0.00,Wunderground v.1.15,2013-07-21 05:39:00,
2013-07-21 01:44:00,72.7,67.6,29.76,NNE,30,0.0,0.0,84,0.00,,,0.00,Wunderground v.1.15,2013-07-21 05:44:00,
2013-07-21 01:49:00,72.8,67.7,29.76,NNE,30,0.0,0.0,84,0.00,,,0.00,Wunderground v.1.15,2013-07-21 05:49:00,
2013-07-21 01:54:00,72.9,67.4,29.77,NNE,30,0.0,0.0,83,0.00,,,0.00,Wunderground v.1.15,2013-07-21 05:54:00,
2013-07-21 01:59:00,72.9,67.4,29.77,NNE,30,0.0,0.0,83,0.00,,,0.00,Wunderground v.1.15,2013-07-21 05:59:00,
2013-07-21 02:04:00,72.9,67.4,29.77,NNE,30,0.0,0.0,83,0.00,,,0.00,Wunderground v.1.15,2013-07-21 06:04:00,
2013-07-21 02:09:00,72.9,67.4,29.77,NNE,30,0.0,0.0,83,0.00,,,0.00,Wunderground v.1.15,2013-07-21 06:09:00,
2013-07-21 02:14:00,72.8,67.3,29.77,NNE,30,0.0,0.0,83,0.00,,,0.00,Wunderground v.1.15,2013-07-21 06:14:00,
2013-07-21 02:24:00,72.6,67.1,29.77,NNE,30,0.0,0.0,83,0.00,,,0.00,Wunderground v.1.15,2013-07-21 06:24:00,
2013-07-21 02:34:00,72.2,67.1,29.77,NNE,30,0.0,0.0,84,0.00,,,0.00,Wunderground v.1.15,2013-07-21 06:34:00,
2013-07-21 02:39:00,72.0,67.2,29.78,NNE,30,0.0,0.0,85,0.00,,,0.00,Wunderground v.1.15,2013-07-21 06:39:00,
2013-07-21 02:44:00,71.9,67.1,29.78,NNE,30,0.0,0.0,85,0.00,,,0.00,Wunderground v.1.15,2013-07-21 06:44:00,
2013-07-21 02:49:00,71.7,66.9,29.78,NNE,30,0.0,0.0,85,0.00,,,0.00,Wunderground v.1.15,2013-07-21 06:49:00,
2013-07-21 02:54:00,71.5,67.1,29.78,NNE,30,0.0,0.0,86,0.00,,,0.00,Wunderground v.1.15,2013-07-21 06:54:00,
2013-07-21 03:04:00,71.3,66.9,29.78,NNE,30,0.0,0.0,86,0.00,,,0.00,Wunderground v.1.15,2013-07-21 07:04:00,
2013-07-21 03:09:00,71.2,66.8,29.78,NNE,30,0.0,0.0,86,0.00,,,0.00,Wunderground v.1.15,2013-07-21 07:09:00,
2013-07-21 03:14:00,71.2,66.8,29.78,NNE,30,0.0,0.0,86,0.00,,,0.00,Wunderground v.1.15,2013-07-21 07:14:00,
2013-07-21 03:24:00,71.0,66.9,29.78,NNE,30,0.0,0.0,87,0.00,,,0.00,Wunderground v.1.15,2013-07-21 07:24:00,
2013-07-21 03:34:00,70.7,66.6,29.78,NNE,30,0.0,0.0,87,0.00,,,0.00,Wunderground v.1.15,2013-07-21 07:34:00,
2013-07-21 03:39:00,70.6,66.5,29.78,NNE,30,0.0,0.0,87,0.00,,,0.00,Wunderground v.1.15,2013-07-21 07:39:00,
2013-07-21 03:44:00,70.5,66.8,29.78,NNE,30,0.0,0.0,88,0.00,,,0.00,Wunderground v.1.15,2013-07-21 07:44:00,
2013-07-21 03:49:00,70.3,66.6,29.78,NNE,30,0.0,0.0,88,0.00,,,0.00,Wunderground v.1.15,2013-07-21 07:49:00,
2013-07-21 03:54:00,70.2,66.5,29.78,NNE,30,0.0,0.0,88,0.00,,,0.00,Wunderground v.1.15,2013-07-21 07:54:00,
2013-07-21 03:59:00,70.0,66.3,29.78,NNE,30,0.0,0.0,88,0.00,,,0.00,Wunderground v.1.15,2013-07-21 07:59:00,
2013-07-21 04:04:00,69.8,66.4,29.78,NNE,30,0.0,0.0,89,0.00,,,0.00,Wunderground v.1.15,2013-07-21 08:04:00,
2013-07-21 04:09:00,69.7,66.3,29.78,NNE,30,0.0,0.0,89,0.00,,,0.00,Wunderground v.1.15,2013-07-21 08:09:00,
2013-07-21 04:14:00,69.5,66.1,29.78,NNE,30,0.0,0.0,89,0.00,,,0.00,Wunderground v.1.15,2013-07-21 08:14:00,
2013-07-21 04:19:00,69.4,66.3,29.79,NNE,30,0.0,0.0,90,0.00,,,0.00,Wunderground v.1.15,2013-07-21 08:19:00,
2013-07-21 04:29:00,69.1,66.0,29.79,NNE,30,0.0,0.0,90,0.00,,,0.00,Wunderground v.1.15,2013-07-21 08:29:00,
2013-07-21 04:34:00,69.0,66.3,29.80,NNE,30,0.0,0.0,91,0.00,,,0.00,Wunderground v.1.15,2013-07-21 08:34:00,
2013-07-21 04:44:00,69.2,66.8,29.81,NNE,30,0.0,2.0,92,0.00,,,0.00,Wunderground v.1.15,2013-07-21 08:44:00,
2013-07-21 04:49:00,69.2,66.8,29.81,NNE,30,0.0,0.0,92,0.00,,,0.00,Wunderground v.1.15,2013-07-21 08:49:00,
2013-07-21 04:54:00,69.1,66.7,29.82,NNE,30,0.0,1.0,92,0.00,,,0.00,Wunderground v.1.15,2013-07-21 08:54:00,
2013-07-21 04:59:00,69.0,66.6,29.82,NNE,30,0.0,0.0,92,0.00,,,0.00,Wunderground v.1.15,2013-07-21 08:59:00,
2013-07-21 05:04:00,68.9,66.5,29.82,NNE,30,0.0,0.0,92,0.00,,,0.00,Wunderground v.1.15,2013-07-21 09:04:00,
2013-07-21 05:09:00,68.8,66.4,29.82,NNE,30,0.0,1.0,92,0.00,,,0.00,Wunderground v.1.15,2013-07-21 09:09:00,
2013-07-21 05:14:00,68.7,66.3,29.82,NNE,30,0.0,1.0,92,0.00,,,0.00,Wunderground v.1.15,2013-07-21 09:14:00,
2013-07-21 05:19:00,68.6,66.2,29.82,NNE,30,0.0,0.0,92,0.00,,,0.00,Wunderground v.1.15,2013-07-21 09:19:00,
2013-07-21 05:24:00,68.6,66.5,29.82,NNE,30,0.0,0.0,93,0.00,,,0.00,Wunderground v.1.15,2013-07-21 09:24:00,
2013-07-21 05:29:00,68.5,66.4,29.82,NNE,30,0.0,0.0,93,0.00,,,0.00,Wunderground v.1.15,2013-07-21 09:29:00,
2013-07-21 05:39:00,68.4,66.3,29.82,NNE,30,0.0,0.0,93,0.00,,,0.00,Wunderground v.1.15,2013-07-21 09:39:00,
2013-07-21 05:44:00,68.3,66.2,29.83,NNE,30,0.0,0.0,93,0.00,,,0.00,Wunderground v.1.15,2013-07-21 09:44:00,
2013-07-21 05:54:00,68.2,66.1,29.83,NNE,30,0.0,0.0,93,0.00,,,0.00,Wunderground v.1.15,2013-07-21 09:54:00,
2013-07-21 05:59:00,68.4,66.6,29.83,NNE,30,0.0,0.0,94,0.00,,,0.00,Wunderground v.1.15,2013-07-21 09:59:00,
2013-07-21 06:04:00,68.6,66.8,29.83,NNE,30,0.0,0.0,94,0.00,,,0.00,Wunderground v.1.15,2013-07-21 10:04:00,
2013-07-21 06:09:00,68.7,66.9,29.84,NNE,30,0.0,0.0,94,0.00,,,0.00,Wunderground v.1.15,2013-07-21 10:09:00,
2013-07-21 06:14:00,68.9,67.1,29.84,NNE,30,0.0,0.0,94,0.00,,,0.00,Wunderground v.1.15,2013-07-21 10:14:00,
2013-07-21 06:19:00,69.1,67.3,29.84,NNE,30,0.0,0.0,94,0.00,,,0.00,Wunderground v.1.15,2013-07-21 10:19:00,
2013-07-21 06:24:00,69.2,67.1,29.85,NNE,30,0.0,0.0,93,0.00,,,0.00,Wunderground v.1.15,2013-07-21 10:24:00,
2013-07-21 06:29:00,69.4,67.0,29.85,NNE,30,0.0,1.0,92,0.00,,,0.00,Wunderground v.1.15,2013-07-21 10:29:00,
2013-07-21 06:34:00,69.5,66.8,29.85,NNE,30,0.0,1.0,91,0.00,,,0.00,Wunderground v.1.15,2013-07-21 10:34:00,
2013-07-21 06:44:00,69.8,66.7,29.85,NNE,30,0.0,0.0,90,0.00,,,0.00,Wunderground v.1.15,2013-07-21 10:44:00,
2013-07-21 06:49:00,70.0,66.6,29.85,NNE,30,0.0,0.0,89,0.00,,,0.00,Wunderground v.1.15,2013-07-21 10:49:00,
2013-07-21 06:54:00,70.3,66.6,29.85,NNE,30,0.0,0.0,88,0.00,,,0.00,Wunderground v.1.15,2013-07-21 10:54:00,
2013-07-21 07:04:00,70.8,66.7,29.85,NNE,30,0.0,1.0,87,0.00,,,0.00,Wunderground v.1.15,2013-07-21 11:04:00,
2013-07-21 07:09:00,71.0,66.6,29.85,NNE,30,0.0,1.0,86,0.00,,,0.00,Wunderground v.1.15,2013-07-21 11:09:00,
2013-07-21 07:14:00,71.2,66.1,29.86,NNE,30,0.0,1.0,84,0.00,,,0.00,Wunderground v.1.15,2013-07-21 11:14:00,
2013-07-21 07:19:00,71.5,66.1,29.86,NNE,30,0.0,1.0,83,0.00,,,0.00,Wunderground v.1.15,2013-07-21 11:19:00,
2013-07-21 07:24:00,71.9,65.8,29.86,NNE,30,0.0,1.0,81,0.00,,,0.00,Wunderground v.1.15,2013-07-21 11:24:00,
2013-07-21 07:29:00,72.2,65.7,29.86,NNE,30,0.0,1.0,80,0.00,,,0.00,Wunderground v.1.15,2013-07-21 11:29:00,
2013-07-21 07:34:00,72.4,65.9,29.86,NNE,30,0.0,1.0,80,0.00,,,0.00,Wunderground v.1.15,2013-07-21 11:34:00,
2013-07-21 07:39:00,72.6,65.7,29.86,NNE,30,0.0,1.0,79,0.00,,,0.00,Wunderground v.1.15,2013-07-21 11:39:00,
2013-07-21 07:49:00,73.0,66.1,29.87,NNE,30,0.0,1.0,79,0.00,,,0.00,Wunderground v.1.15,2013-07-21 11:49:00,
2013-07-21 07:54:00,73.4,66.5,29.87,NNE,30,0.0,3.0,79,0.00,,,0.00,Wunderground v.1.15,2013-07-21 11:54:00,
2013-07-21 07:59:00,73.7,66.8,29.87,NNE,30,1.0,1.0,79,0.00,,,0.00,Wunderground v.1.15,2013-07-21 11:59:00,
2013-07-21 08:04:00,73.9,67.0,29.88,NE,40,1.0,6.0,79,0.00,,,0.00,Wunderground v.1.15,2013-07-21 12:04:00,
2013-07-21 08:14:00,74.5,67.9,29.88,NE,40,0.0,2.0,80,0.00,,,0.00,Wunderground v.1.15,2013-07-21 12:14:00,
2013-07-21 08:19:00,74.6,67.7,29.88,NE,42,1.0,1.0,79,0.00,,,0.00,Wunderground v.1.15,2013-07-21 12:19:00,
2013-07-21 08:24:00,74.4,67.8,29.88,NE,52,1.0,3.0,80,0.00,,,0.00,Wunderground v.1.15,2013-07-21 12:24:00,
2013-07-21 08:29:00,74.4,67.5,29.89,NE,52,1.0,5.0,79,0.00,,,0.00,Wunderground v.1.15,2013-07-21 12:29:00,
2013-07-21 08:34:00,74.5,66.8,29.89,NE,53,1.0,5.0,77,0.00,,,0.00,Wunderground v.1.15,2013-07-21 12:34:00,
2013-07-21 08:39:00,74.3,66.6,29.89,NE,56,1.0,1.0,77,0.00,,,0.00,Wunderground v.1.15,2013-07-21 12:39:00,
2013-07-21 08:44:00,74.1,66.4,29.90,NE,56,1.0,1.0,77,0.00,,,0.00,Wunderground v.1.15,2013-07-21 12:44:00,
2013-07-21 08:49:00,74.0,66.3,29.90,NE,56,0.0,2.0,77,0.00,,,0.00,Wunderground v.1.15,2013-07-21 12:49:00,
2013-07-21 08:59:00,74.4,66.3,29.90,NE,56,0.0,1.0,76,0.00,,,0.00,Wunderground v.1.15,2013-07-21 12:59:00,
2013-07-21 09:04:00,74.5,66.4,29.90,NE,56,0.0,3.0,76,0.00,,,0.00,Wunderground v.1.15,2013-07-21 13:04:00,
2013-07-21 09:09:00,74.7,66.6,29.90,NE,56,0.0,4.0,76,0.00,,,0.00,Wunderground v.1.15,2013-07-21 13:09:00,
2013-07-21 09:14:00,74.7,66.6,29.90,NE,56,0.0,4.0,76,0.00,,,0.00,Wunderground v.1.15,2013-07-21 13:14:00,
2013-07-21 09:24:00,74.4,66.3,29.90,NE,56,0.0,1.0,76,0.00,,,0.00,Wunderground v.1.15,2013-07-21 13:24:00,
2013-07-21 09:29:00,74.3,66.2,29.90,ENE,60,0.0,1.0,76,0.00,,,0.00,Wunderground v.1.15,2013-07-21 13:29:00,
2013-07-21 09:34:00,74.4,66.3,29.90,ENE,60,0.0,1.0,76,0.00,,,0.00,Wunderground v.1.15,2013-07-21 13:34:00,
2013-07-21 09:39:00,74.5,66.4,29.90,ENE,60,0.0,4.0,76,0.00,,,0.00,Wunderground v.1.15,2013-07-21 13:39:00,
2013-07-21 09:44:00,74.8,67.1,29.90,ENE,60,0.0,4.0,77,0.00,,,0.00,Wunderground v.1.15,2013-07-21 13:44:00,
2013-07-21 09:49:00,75.0,66.9,29.90,ENE,60,0.0,1.0,76,0.00,,,0.00,Wunderground v.1.15,2013-07-21 13:49:00,
2013-07-21 09:54:00,75.0,66.9,29.90,ENE,60,0.0,2.0,76,0.00,,,0.00,Wunderground v.1.15,2013-07-21 13:54:00,
2013-07-21 09:59:00,74.8,66.3,29.90,ENE,60,0.0,3.0,75,0.00,,,0.00,Wunderground v.1.15,2013-07-21 13:59:00,
2013-07-21 10:09:00,74.9,66.8,29.91,ENE,60,0.0,1.0,76,0.00,,,0.00,Wunderground v.1.15,2013-07-21 14:09:00,
2013-07-21 10:14:00,75.2,66.7,29.90,NNE,20,0.0,2.0,75,0.00,,,0.00,Wunderground v.1.15,2013-07-21 14:14:00,
2013-07-21 10:24:00,75.0,66.5,29.90,NNE,28,0.0,2.0,75,0.00,,,0.00,Wunderground v.1.15,2013-07-21 14:24:00,
2013-07-21 10:34:00,74.9,66.8,29.91,NNE,31,1.0,4.0,76,0.00,,,0.00,Wunderground v.1.15,2013-07-21 14:34:00,
2013-07-21 10:39:00,75.1,67.0,29.91,NNE,32,1.0,1.0,76,0.00,,,0.00,Wunderground v.1.15,2013-07-21 14:39:00,
2013-07-21 10:44:00,75.4,67.7,29.91,NNE,32,0.0,1.0,77,0.00,,,0.00,Wunderground v.1.15,2013-07-21 14:44:00,
2013-07-21 10:49:00,75.7,67.6,29.91,NNE,32,0.0,2.0,76,0.00,,,0.00,Wunderground v.1.15,2013-07-21 14:49:00,
2013-07-21 10:54:00,75.5,67.4,29.91,NNE,32,0.0,2.0,76,0.00,,,0.00,Wunderground v.1.15,2013-07-21 14:54:00,
2013-07-21 10:59:00,75.7,68.0,29.90,NNE,32,0.0,1.0,77,0.00,,,0.00,Wunderground v.1.15,2013-07-21 14:59:00,
2013-07-21 11:04:00,75.8,67.3,29.91,NNE,32,0.0,5.0,75,0.00,,,0.00,Wunderground v.1.15,2013-07-21 15:04:00,
2013-07-21 11:09:00,75.7,67.2,29.91,NNE,32,1.0,1.0,75,0.00,,,0.00,Wunderground v.1.15,2013-07-21 15:09:00,
2013-07-21 11:14:00,75.9,68.5,29.91,NNE,32,1.0,1.0,78,0.00,,,0.00,Wunderground v.1.15,2013-07-21 15:14:00,
2013-07-21 11:19:00,76.0,68.3,29.91,NNE,32,0.0,1.0,77,0.00,,,0.00,Wunderground v.1.15,2013-07-21 15:19:00,
2013-07-21 11:29:00,76.1,68.4,29.91,NE,35,1.0,2.0,77,0.00,,,0.00,Wunderground v.1.15,2013-07-21 15:29:00,
2013-07-21 11:34:00,76.0,68.3,29.92,NE,48,1.0,3.0,77,0.00,,,0.00,Wunderground v.1.15,2013-07-21 15:34:00,
2013-07-21 11:44:00,75.2,68.2,29.92,NE,48,1.0,2.0,79,0.00,,,0.00,Wunderground v.1.15,2013-07-21 15:44:00,
2013-07-21 11:49:00,75.0,68.0,29.92,NE,48,1.0,1.0,79,0.00,,,0.00,Wunderground v.1.15,2013-07-21 15:49:00,
2013-07-21 11:54:00,74.9,67.9,29.92,NE,48,1.0,3.0,79,0.00,,,0.00,Wunderground v.1.15,2013-07-21 15:54:00,
2013-07-21 11:59:00,75.1,68.1,29.92,NE,48,1.0,2.0,79,0.00,,,0.00,Wunderground v.1.15,2013-07-21 15:59:00,
2013-07-21 12:04:00,75.3,65.6,29.92,NE,48,1.0,4.0,72,0.00,,,0.00,Wunderground v.1.15,2013-07-21 16:04:00,
2013-07-21 12:09:00,75.7,64.0,29.92,NE,48,1.0,1.0,67,0.00,,,0.00,Wunderground v.1.15,2013-07-21 16:09:00,
2013-07-21 12:14:00,75.9,63.7,29.92,NE,49,1.0,4.0,66,0.00,,,0.00,Wunderground v.1.15,2013-07-21 16:14:00,
2013-07-21 12:19:00,76.4,64.6,29.92,NE,48,1.0,1.0,67,0.00,,,0.00,Wunderground v.1.15,2013-07-21 16:19:00,
2013-07-21 12:29:00,77.0,63.9,29.92,NE,48,1.0,1.0,64,0.00,,,0.00,Wunderground v.1.15,2013-07-21 16:29:00,
2013-07-21 12:34:00,77.1,64.0,29.92,East,82,1.0,2.0,64,0.00,,,0.00,Wunderground v.1.15,2013-07-21 16:34:00,
2013-07-21 12:39:00,77.1,64.4,29.92,East,82,1.0,3.0,65,0.00,,,0.00,Wunderground v.1.15,2013-07-21 16:39:00,
2013-07-21 12:44:00,77.5,65.2,29.92,East,82,1.0,3.0,66,0.00,,,0.00,Wunderground v.1.15,2013-07-21 16:44:00,
2013-07-21 12:54:00,77.9,65.2,29.92,East,83,1.0,3.0,65,0.00,,,0.00,Wunderground v.1.15,2013-07-21 16:54:00,
2013-07-21 12:59:00,77.6,65.3,29.92,East,83,1.0,1.0,66,0.00,,,0.00,Wunderground v.1.15,2013-07-21 16:59:00,
2013-07-21 13:04:00,77.6,65.3,29.92,East,83,1.0,2.0,66,0.00,,,0.00,Wunderground v.1.15,2013-07-21 17:04:00,
2013-07-21 13:09:00,77.2,64.5,29.92,East,83,1.0,1.0,65,0.00,,,0.00,Wunderground v.1.15,2013-07-21 17:09:00,
2013-07-21 13:14:00,76.5,64.3,29.92,East,84,1.0,2.0,66,0.00,,,0.00,Wunderground v.1.15,2013-07-21 17:14:00,
2013-07-21 13:19:00,75.9,64.6,29.92,East,84,1.0,1.0,68,0.00,,,0.00,Wunderground v.1.15,2013-07-21 17:19:00,
2013-07-21 13:24:00,75.8,64.9,29.92,East,84,1.0,2.0,69,0.00,,,0.00,Wunderground v.1.15,2013-07-21 17:24:00,
2013-07-21 13:29:00,75.9,65.4,29.92,East,84,1.0,2.0,70,0.00,,,0.00,Wunderground v.1.15,2013-07-21 17:29:00,
2013-07-21 13:39:00,75.7,65.6,29.92,East,88,1.0,1.0,71,0.00,,,0.00,Wunderground v.1.15,2013-07-21 17:39:00,
2013-07-21 13:44:00,75.8,65.7,29.92,East,88,0.0,1.0,71,0.00,,,0.00,Wunderground v.1.15,2013-07-21 17:44:00,
2013-07-21 13:49:00,75.6,65.5,29.91,East,88,0.0,3.0,71,0.00,,,0.00,Wunderground v.1.15,2013-07-21 17:49:00,
2013-07-21 13:54:00,75.3,65.2,29.91,East,88,0.0,4.0,71,0.00,,,0.00,Wunderground v.1.15,2013-07-21 17:54:00,
2013-07-21 14:04:00,74.8,65.6,29.92,East,88,1.0,2.0,73,0.00,,,0.00,Wunderground v.1.15,2013-07-21 18:04:00,
2013-07-21 14:09:00,75.1,65.9,29.92,East,88,1.0,1.0,73,0.00,,,0.00,Wunderground v.1.15,2013-07-21 18:09:00,
2013-07-21 14:14:00,75.3,66.4,29.92,East,88,0.0,2.0,74,0.00,,,0.00,Wunderground v.1.15,2013-07-21 18:14:00,
2013-07-21 14:19:00,75.4,65.7,29.91,East,88,1.0,3.0,72,0.00,,,0.00,Wunderground v.1.15,2013-07-21 18:19:00,
2013-07-21 14:24:00,75.2,65.9,29.91,East,88,1.0,3.0,73,0.00,,,0.00,Wunderground v.1.15,2013-07-21 18:24:00,
2013-07-21 14:29:00,75.0,66.1,29.91,East,88,1.0,1.0,74,0.00,,,0.00,Wunderground v.1.15,2013-07-21 18:29:00,
2013-07-21 14:39:00,74.6,66.1,29.91,East,88,0.0,1.0,75,0.00,,,0.00,Wunderground v.1.15,2013-07-21 18:39:00,
2013-07-21 14:44:00,74.3,66.2,29.91,East,88,0.0,4.0,76,0.00,,,0.00,Wunderground v.1.15,2013-07-21 18:44:00,
2013-07-21 14:49:00,74.2,66.1,29.91,East,88,1.0,1.0,76,0.00,,,0.00,Wunderground v.1.15,2013-07-21 18:49:00,
2013-07-21 14:54:00,74.3,66.6,29.91,East,88,1.0,2.0,77,0.00,,,0.00,Wunderground v.1.15,2013-07-21 18:54:00,
2013-07-21 14:59:00,74.6,66.9,29.91,East,88,1.0,2.0,77,0.00,,,0.00,Wunderground v.1.15,2013-07-21 18:59:00,
2013-07-21 15:04:00,74.7,67.0,29.91,East,88,1.0,3.0,77,0.00,,,0.00,Wunderground v.1.15,2013-07-21 19:04:00,
2013-07-21 15:14:00,74.8,67.5,29.90,East,88,1.0,2.0,78,0.00,,,0.00,Wunderground v.1.15,2013-07-21 19:14:00,
2013-07-21 15:19:00,75.0,67.3,29.90,East,88,1.0,1.0,77,0.00,,,0.00,Wunderground v.1.15,2013-07-21 19:19:00,
2013-07-21 15:24:00,75.3,67.6,29.90,East,89,1.0,2.0,77,0.00,,,0.00,Wunderground v.1.15,2013-07-21 19:24:00,
2013-07-21 15:29:00,75.4,67.7,29.90,East,88,1.0,5.0,77,0.00,,,0.00,Wunderground v.1.15,2013-07-21 19:29:00,
2013-07-21 15:34:00,75.2,67.5,29.90,East,89,1.0,5.0,77,0.00,,,0.00,Wunderground v.1.15,2013-07-21 19:34:00,
2013-07-21 15:44:00,74.9,67.6,29.90,East,89,1.0,4.0,78,0.00,,,0.00,Wunderground v.1.15,2013-07-21 19:44:00,
2013-07-21 15:49:00,74.8,67.8,29.90,East,89,1.0,1.0,79,0.00,,,0.00,Wunderground v.1.15,2013-07-21 19:49:00,
2013-07-21 15:54:00,74.5,67.9,29.90,East,89,0.0,3.0,80,0.00,,,0.00,Wunderground v.1.15,2013-07-21 19:54:00,
2013-07-21 16:04:00,74.1,67.9,29.90,East,89,0.0,3.0,81,0.00,,,0.00,Wunderground v.1.15,2013-07-21 20:04:00,
2013-07-21 16:09:00,74.2,68.0,29.90,East,89,1.0,1.0,81,0.00,,,0.00,Wunderground v.1.15,2013-07-21 20:09:00,
2013-07-21 16:14:00,74.3,68.1,29.90,East,89,1.0,7.0,81,0.00,,,0.00,Wunderground v.1.15,2013-07-21 20:14:00,
2013-07-21 16:24:00,74.1,67.9,29.90,East,90,2.0,7.0,81,0.00,,,0.00,Wunderground v.1.15,2013-07-21 20:24:00,
2013-07-21 16:29:00,74.2,68.0,29.90,East,90,1.0,3.0,81,0.00,,,0.00,Wunderground v.1.15,2013-07-21 20:29:00,
2013-07-21 16:34:00,74.4,68.2,29.90,East,90,1.0,3.0,81,0.00,,,0.00,Wunderground v.1.15,2013-07-21 20:34:00,
2013-07-21 16:39:00,74.7,68.5,29.90,East,90,1.0,1.0,81,0.00,,,0.00,Wunderground v.1.15,2013-07-21 20:39:00,
2013-07-21 16:44:00,74.7,68.1,29.90,East,90,1.0,7.0,80,0.00,,,0.00,Wunderground v.1.15,2013-07-21 20:44:00,
2013-07-21 16:49:00,74.6,68.0,29.90,East,90,1.0,1.0,80,0.00,,,0.00,Wunderground v.1.15,2013-07-21 20:49:00,
2013-07-21 16:54:00,74.6,68.4,29.90,East,90,1.0,3.0,81,0.00,,,0.00,Wunderground v.1.15,2013-07-21 20:54:00,
2013-07-21 17:04:00,74.4,68.2,29.90,East,90,0.0,2.0,81,0.00,,,0.00,Wunderground v.1.15,2013-07-21 21:04:00,
2013-07-21 17:09:00,74.3,68.1,29.90,East,90,0.0,3.0,81,0.00,,,0.00,Wunderground v.1.15,2013-07-21 21:09:00,
2013-07-21 17:14:00,74.2,68.3,29.90,East,90,0.0,3.0,82,0.00,,,0.00,Wunderground v.1.15,2013-07-21 21:14:00,
2013-07-21 17:24:00,73.7,67.9,29.90,East,90,1.0,4.0,82,0.00,,,0.00,Wunderground v.1.15,2013-07-21 21:24:00,
2013-07-21 17:34:00,73.2,68.1,29.90,East,90,1.0,6.0,84,0.00,,,0.00,Wunderground v.1.15,2013-07-21 21:34:00,
2013-07-21 17:39:00,73.3,68.2,29.90,East,90,1.0,3.0,84,0.00,,,0.00,Wunderground v.1.15,2013-07-21 21:39:00,
2013-07-21 17:44:00,73.5,68.4,29.90,East,90,1.0,3.0,84,0.00,,,0.00,Wunderground v.1.15,2013-07-21 21:44:00,
2013-07-21 17:49:00,73.6,68.1,29.89,East,90,1.0,1.0,83,0.00,,,0.00,Wunderground v.1.15,2013-07-21 21:49:00,
2013-07-21 17:54:00,73.7,68.2,29.89,East,90,1.0,3.0,83,0.00,,,0.00,Wunderground v.1.15,2013-07-21 21:54:00,
2013-07-21 17:59:00,73.7,68.2,29.89,East,90,0.0,0.0,83,0.00,,,0.00,Wunderground v.1.15,2013-07-21 21:59:00,
2013-07-21 18:04:00,73.7,68.2,29.89,East,90,0.0,1.0,83,0.00,,,0.00,Wunderground v.1.15,2013-07-21 22:04:00,
2013-07-21 18:09:00,73.5,68.4,29.89,East,90,0.0,1.0,84,0.00,,,0.00,Wunderground v.1.15,2013-07-21 22:09:00,
2013-07-21 18:19:00,73.5,68.4,29.89,East,90,0.0,2.0,84,0.00,,,0.00,Wunderground v.1.15,2013-07-21 22:19:00,
2013-07-21 18:24:00,73.4,68.6,29.89,East,90,0.0,2.0,85,0.00,,,0.00,Wunderground v.1.15,2013-07-21 22:24:00,
2013-07-21 18:29:00,73.3,68.5,29.90,East,90,0.0,2.0,85,0.00,,,0.00,Wunderground v.1.15,2013-07-21 22:29:00,
2013-07-21 18:39:00,73.0,68.2,29.89,East,90,1.0,1.0,85,0.00,,,0.00,Wunderground v.1.15,2013-07-21 22:39:00,
2013-07-21 18:44:00,72.8,68.4,29.89,East,90,0.0,1.0,86,0.00,,,0.00,Wunderground v.1.15,2013-07-21 22:44:00,
2013-07-21 18:49:00,72.6,68.5,29.89,East,90,0.0,1.0,87,0.00,,,0.00,Wunderground v.1.15,2013-07-21 22:49:00,
2013-07-21 18:54:00,72.5,68.4,29.90,East,90,0.0,2.0,87,0.00,,,0.00,Wunderground v.1.15,2013-07-21 22:54:00,
2013-07-21 18:59:00,72.3,68.2,29.90,East,90,0.0,3.0,87,0.00,,,0.00,Wunderground v.1.15,2013-07-21 22:59:00,
2013-07-21 19:04:00,72.1,68.0,29.90,East,90,0.0,3.0,87,0.00,,,0.00,Wunderground v.1.15,2013-07-21 23:04:00,
2013-07-21 19:09:00,72.0,68.2,29.90,East,90,0.0,2.0,88,0.00,,,0.00,Wunderground v.1.15,2013-07-21 23:09:00,
2013-07-21 19:14:00,71.9,68.2,29.90,East,90,0.0,2.0,88,0.00,,,0.00,Wunderground v.1.15,2013-07-21 23:14:00,
2013-07-21 19:19:00,71.8,68.4,29.90,East,90,0.0,0.0,89,0.00,,,0.00,Wunderground v.1.15,2013-07-21 23:19:00,
2013-07-21 19:29:00,71.7,68.3,29.90,East,90,0.0,1.0,89,0.00,,,0.00,Wunderground v.1.15,2013-07-21 23:29:00,
2013-07-21 19:39:00,71.7,68.3,29.90,East,90,0.0,0.0,89,0.00,,,0.00,Wunderground v.1.15,2013-07-21 23:39:00,
2013-07-21 19:44:00,71.7,68.3,29.90,East,90,0.0,2.0,89,0.00,,,0.00,Wunderground v.1.15,2013-07-21 23:44:00,
2013-07-21 19:49:00,71.7,68.3,29.90,East,90,0.0,0.0,89,0.00,,,0.00,Wunderground v.1.15,2013-07-21 23:49:00,
2013-07-21 19:54:00,71.7,68.3,29.90,East,90,0.0,1.0,89,0.00,,,0.00,Wunderground v.1.15,2013-07-21 23:54:00,
2013-07-21 20:04:00,71.7,68.3,29.90,East,90,0.0,0.0,89,0.00,,,0.00,Wunderground v.1.15,2013-07-22 00:04:00,
2013-07-21 20:09:00,71.6,68.2,29.90,East,90,0.0,0.0,89,0.00,,,0.00,Wunderground v.1.15,2013-07-22 00:09:00,
2013-07-21 20:14:00,71.5,68.1,29.90,East,90,0.0,2.0,89,0.00,,,0.00,Wunderground v.1.15,2013-07-22 00:14:00,
2013-07-21 20:19:00,71.4,68.3,29.90,East,90,0.0,0.0,90,0.00,,,0.00,Wunderground v.1.15,2013-07-22 00:19:00,
2013-07-21 20:24:00,71.3,68.2,29.90,East,90,0.0,0.0,90,0.00,,,0.00,Wunderground v.1.15,2013-07-22 00:24:00,
2013-07-21 20:29:00,71.2,68.1,29.91,East,90,0.0,1.0,90,0.00,,,0.00,Wunderground v.1.15,2013-07-22 00:29:00,
2013-07-21 20:34:00,71.1,68.0,29.91,East,90,0.0,1.0,90,0.00,,,0.00,Wunderground v.1.15,2013-07-22 00:34:00,
2013-07-21 20:39:00,71.0,68.2,29.91,East,90,0.0,1.0,91,0.00,,,0.00,Wunderground v.1.15,2013-07-22 00:39:00,
2013-07-21 20:44:00,70.9,68.1,29.91,East,90,0.0,1.0,91,0.00,,,0.00,Wunderground v.1.15,2013-07-22 00:44:00,
2013-07-21 20:54:00,70.7,67.9,29.92,East,90,0.0,0.0,91,0.00,,,0.00,Wunderground v.1.15,2013-07-22 00:54:00,
2013-07-21 20:59:00,70.6,67.8,29.92,East,90,0.0,0.0,91,0.00,,,0.00,Wunderground v.1.15,2013-07-22 00:59:00,
2013-07-21 21:04:00,70.6,67.8,29.92,East,90,0.0,0.0,91,0.00,,,0.00,Wunderground v.1.15,2013-07-22 01:04:00,
2013-07-21 21:09:00,70.6,67.8,29.92,East,90,0.0,1.0,91,0.00,,,0.00,Wunderground v.1.15,2013-07-22 01:09:00,
2013-07-21 21:19:00,70.4,67.6,29.92,East,90,0.0,0.0,91,0.00,,,0.00,Wunderground v.1.15,2013-07-22 01:19:00,
2013-07-21 21:24:00,70.4,67.6,29.93,East,90,0.0,0.0,91,0.00,,,0.00,Wunderground v.1.15,2013-07-22 01:24:00,
2013-07-21 21:29:00,70.3,67.5,29.93,East,90,0.0,0.0,91,0.00,,,0.00,Wunderground v.1.15,2013-07-22 01:29:00,
2013-07-21 21:34:00,70.2,67.4,29.93,East,90,0.0,2.0,91,0.00,,,0.00,Wunderground v.1.15,2013-07-22 01:34:00,
2013-07-21 21:39:00,70.2,67.4,29.93,East,90,0.0,0.0,91,0.00,,,0.00,Wunderground v.1.15,2013-07-22 01:39:00,
2013-07-21 21:44:00,70.2,67.8,29.93,East,90,0.0,0.0,92,0.00,,,0.00,Wunderground v.1.15,2013-07-22 01:44:00,
2013-07-21 21:49:00,70.1,67.7,29.94,East,90,0.0,0.0,92,0.00,,,0.00,Wunderground v.1.15,2013-07-22 01:49:00,
2013-07-21 21:54:00,70.1,67.7,29.94,East,90,0.0,0.0,92,0.00,,,0.00,Wunderground v.1.15,2013-07-22 01:54:00,
2013-07-21 21:59:00,70.1,67.7,29.94,East,90,0.0,0.0,92,0.00,,,0.00,Wunderground v.1.15,2013-07-22 01:59:00,
2013-07-21 22:09:00,70.0,67.6,29.94,East,90,0.0,0.0,92,0.00,,,0.00,Wunderground v.1.15,2013-07-22 02:09:00,
2013-07-21 22:19:00,69.8,67.4,29.94,East,90,0.0,0.0,92,0.00,,,0.00,Wunderground v.1.15,2013-07-22 02:19:00,
2013-07-21 22:24:00,69.7,67.3,29.94,East,90,0.0,0.0,92,0.00,,,0.00,Wunderground v.1.15,2013-07-22 02:24:00,
2013-07-21 22:29:00,69.6,67.2,29.94,East,90,0.0,0.0,92,0.00,,,0.00,Wunderground v.1.15,2013-07-22 02:29:00,
2013-07-21 22:34:00,69.6,67.5,29.94,East,90,0.0,0.0,93,0.00,,,0.00,Wunderground v.1.15,2013-07-22 02:34:00,
2013-07-21 22:39:00,69.5,67.4,29.94,East,90,0.0,0.0,93,0.00,,,0.00,Wunderground v.1.15,2013-07-22 02:39:00,
2013-07-21 22:44:00,69.5,67.4,29.94,East,90,0.0,0.0,93,0.00,,,0.00,Wunderground v.1.15,2013-07-22 02:44:00,
2013-07-21 22:49:00,69.4,67.3,29.94,East,90,0.0,0.0,93,0.00,,,0.00,Wunderground v.1.15,2013-07-22 02:49:00,
2013-07-21 22:54:00,69.4,67.6,29.94,East,90,0.0,0.0,94,0.00,,,0.00,Wunderground v.1.15,2013-07-22 02:54:00,
2013-07-21 23:04:00,69.3,67.5,29.94,East,90,0.0,0.0,94,0.00,,,0.00,Wunderground v.1.15,2013-07-22 03:04:00,
2013-07-21 23:09:00,69.2,67.4,29.94,East,90,0.0,0.0,94,0.00,,,0.00,Wunderground v.1.15,2013-07-22 03:09:00,
2013-07-21 23:14:00,69.1,67.3,29.94,East,90,0.0,0.0,94,0.00,,,0.00,Wunderground v.1.15,2013-07-22 03:14:00,
2013-07-21 23:24:00,69.0,67.5,29.94,East,90,0.0,0.0,95,0.00,,,0.00,Wunderground v.1.15,2013-07-22 03:24:00,
2013-07-21 23:29:00,68.9,67.4,29.94,East,90,0.0,0.0,95,0.00,,,0.00,Wunderground v.1.15,2013-07-22 03:29:00,
2013-07-21 23:34:00,68.8,67.3,29.94,East,90,0.0,0.0,95,0.00,,,0.00,Wunderground v.1.15,2013-07-22 03:34:00,
2013-07-21 23:44:00,68.6,67.1,29.94,East,90,0.0,0.0,95,0.00,,,0.00,Wunderground v.1.15,2013-07-22 03:44:00,
2013-07-21 23:49:00,68.7,67.2,29.94,East,90,0.0,0.0,95,0.00,,,0.00,Wunderground v.1.15,2013-07-22 03:49:00,
2013-07-21 23:54:00,68.6,67.1,29.94,East,90,0.0,0.0,95,0.00,,,0.00,Wunderground v.1.15,2013-07-22 03:54:00,
2013-07-21 23:59:00,68.6,67.4,29.93,East,90,0.0,0.0,96,0.00,,,0.00,Wunderground v.1.15,2013-07-22 03:59:00,